******** Week 477 almanac for PRN-02 ******** ID: 02 Health: 000 Eccentricity: 0.8793830872E-002 Time of Applicability(s): 503808.0000 Orbital Inclination(rad): 0.9429340363 Rate of Right Ascen(r/s): -0.7810740499E-008 SQRT(A) (m 1/2): 5153.740234 Right Ascen at Week(rad): -0.2681896091E+001 Argument of Perigee(rad): 2.653431296 Mean Anom(rad): 0.2834420443E+001 Af0(s): 0.1792907715E-003 Af1(s/s): -0.3637978807E-011 week: 477 ******** Week 477 almanac for PRN-03 ******** ID: 03 Health: 000 Eccentricity: 0.1134109497E-001 Time of Applicability(s): 503808.0000 Orbital Inclination(rad): 0.9260406494 Rate of Right Ascen(r/s): -0.8254573913E-008 SQRT(A) (m 1/2): 5153.635254 Right Ascen at Week(rad): 0.2456474423E+001 Argument of Perigee(rad): 0.863489270 Mean Anom(rad): 0.2524040341E+001 Af0(s): 0.2985000610E-003 Af1(s/s): 0.3637978807E-011 week: 477 ******** Week 477 almanac for PRN-04 ******** ID: 04 Health: 000 Eccentricity: 0.8394241333E-002 Time of Applicability(s): 503808.0000 Orbital Inclination(rad): 0.9421958923 Rate of Right Ascen(r/s): -0.7803464541E-008 SQRT(A) (m 1/2): 5153.554688 Right Ascen at Week(rad): -0.2663241982E+001 Argument of Perigee(rad): 0.414834738 Mean Anom(rad): -0.5933760405E+000 Af0(s): -0.2040863037E-003 Af1(s/s): -0.1091393642E-010 week: 477 ******** Week 477 almanac for PRN-05 ******** ID: 05 Health: 000 Eccentricity: 0.9362697601E-002 Time of Applicability(s): 503808.0000 Orbital Inclination(rad): 0.9435272217 Rate of Right Ascen(r/s): -0.8029019227E-008 SQRT(A) (m 1/2): 5153.616699 Right Ascen at Week(rad): 0.1424190283E+001 Argument of Perigee(rad): 1.285477042 Mean Anom(rad): -0.1020978808E+001 Af0(s): -0.2927780151E-003 Af1(s/s): -0.5820766091E-010 week: 477 ******** Week 477 almanac for PRN-06 ******** ID: 06 Health: 000 Eccentricity: 0.5654811859E-002 Time of Applicability(s): 503808.0000 Orbital Inclination(rad): 0.9336338043 Rate of Right Ascen(r/s): -0.8141796570E-008 SQRT(A) (m 1/2): 5153.646973 Right Ascen at Week(rad): 0.2522252083E+001 Argument of Perigee(rad): -1.551696897 Mean Anom(rad): -0.1175673485E+001 Af0(s): 0.1573562622E-003 Af1(s/s): -0.3637978807E-011 week: 477 ******** Week 477 almanac for PRN-07 ******** ID: 07 Health: 000 Eccentricity: 0.2281665802E-002 Time of Applicability(s): 503808.0000 Orbital Inclination(rad): 0.9645767212 Rate of Right Ascen(r/s): -0.7661583368E-008 SQRT(A) (m 1/2): 5153.649414 Right Ascen at Week(rad): 0.4704984426E+000 Argument of Perigee(rad): 2.782695770 Mean Anom(rad): 0.1163252950E+001 Af0(s): 0.2193450928E-004 Af1(s/s): 0.0000000000E+000 week: 477 ******** Week 477 almanac for PRN-08 ******** ID: 08 Health: 000 Eccentricity: 0.1061677933E-001 Time of Applicability(s): 503808.0000 Orbital Inclination(rad): 0.9857292175 Rate of Right Ascen(r/s): -0.7432390703E-008 SQRT(A) (m 1/2): 5153.677246 Right Ascen at Week(rad): 0.5262385607E+000 Argument of Perigee(rad): 2.923887968 Mean Anom(rad): 0.4217158556E+000 Af0(s): -0.1745223999E-003 Af1(s/s): 0.0000000000E+000 week: 477 ******** Week 477 almanac for PRN-09 ******** ID: 09 Health: 000 Eccentricity: 0.2010536194E-001 Time of Applicability(s): 503808.0000 Orbital Inclination(rad): 0.9735946655 Rate of Right Ascen(r/s): -0.7607013686E-008 SQRT(A) (m 1/2): 5153.622070 Right Ascen at Week(rad): 0.4348895550E+000 Argument of Perigee(rad): 1.446798563 Mean Anom(rad): 0.8815038204E-001 Af0(s): 0.2002716064E-004 Af1(s/s): 0.3637978807E-011 week: 477 ******** Week 477 almanac for PRN-10 ******** ID: 10 Health: 000 Eccentricity: 0.8079528809E-002 Time of Applicability(s): 503808.0000 Orbital Inclination(rad): 0.9612808228 Rate of Right Ascen(r/s): -0.8149072528E-008 SQRT(A) (m 1/2): 5153.670410 Right Ascen at Week(rad): -0.1598771572E+001 Argument of Perigee(rad): 0.558441997 Mean Anom(rad): -0.2495882273E+001 Af0(s): -0.5722045898E-005 Af1(s/s): 0.0000000000E+000 week: 477 ******** Week 477 almanac for PRN-11 ******** ID: 11 Health: 000 Eccentricity: 0.8691787720E-002 Time of Applicability(s): 503808.0000 Orbital Inclination(rad): 0.8908977509 Rate of Right Ascen(r/s): -0.8338247426E-008 SQRT(A) (m 1/2): 5153.588867 Right Ascen at Week(rad): -0.2870731235E+001 Argument of Perigee(rad): 0.629771352 Mean Anom(rad): 0.8987435102E+000 Af0(s): 0.1716613770E-004 Af1(s/s): 0.0000000000E+000 week: 477 ******** Week 477 almanac for PRN-12 ******** ID: 12 Health: 000 Eccentricity: 0.2981662750E-002 Time of Applicability(s): 503808.0000 Orbital Inclination(rad): 0.9645938873 Rate of Right Ascen(r/s): -0.7825292414E-008 SQRT(A) (m 1/2): 5153.746582 Right Ascen at Week(rad): 0.1520908237E+001 Argument of Perigee(rad): -0.847035646 Mean Anom(rad): 0.1309539437E+001 Af0(s): -0.3461837769E-003 Af1(s/s): 0.3637978807E-011 week: 477 ******** Week 477 almanac for PRN-13 ******** ID: 13 Health: 000 Eccentricity: 0.3622055054E-002 Time of Applicability(s): 503808.0000 Orbital Inclination(rad): 0.9955196381 Rate of Right Ascen(r/s): -0.7836206350E-008 SQRT(A) (m 1/2): 5153.522461 Right Ascen at Week(rad): -0.5251244307E+000 Argument of Perigee(rad): 1.553445816 Mean Anom(rad): -0.2820887327E+001 Af0(s): 0.2746582031E-003 Af1(s/s): 0.0000000000E+000 week: 477 ******** Week 477 almanac for PRN-14 ******** ID: 14 Health: 000 Eccentricity: 0.4327774048E-002 Time of Applicability(s): 503808.0000 Orbital Inclination(rad): 0.9891567230 Rate of Right Ascen(r/s): -0.7905327948E-008 SQRT(A) (m 1/2): 5153.701660 Right Ascen at Week(rad): -0.5432610512E+000 Argument of Perigee(rad): -2.162420750 Mean Anom(rad): -0.3103371620E+001 Af0(s): -0.2059936523E-003 Af1(s/s): 0.3637978807E-011 week: 477 ******** Week 477 almanac for PRN-15 ******** ID: 15 Health: 000 Eccentricity: 0.1042842865E-002 Time of Applicability(s): 503808.0000 Orbital Inclination(rad): 0.9573802948 Rate of Right Ascen(r/s): -0.8225470083E-008 SQRT(A) (m 1/2): 5153.664551 Right Ascen at Week(rad): -0.5887774229E+000 Argument of Perigee(rad): -1.112277627 Mean Anom(rad): -0.2278979421E+001 Af0(s): -0.1955032349E-003 Af1(s/s): -0.7275957614E-011 week: 477 ******** Week 477 almanac for PRN-16 ******** ID: 16 Health: 000 Eccentricity: 0.4733562469E-002 Time of Applicability(s): 503808.0000 Orbital Inclination(rad): 0.9661884308 Rate of Right Ascen(r/s): -0.7799826562E-008 SQRT(A) (m 1/2): 5153.631348 Right Ascen at Week(rad): 0.1537519455E+001 Argument of Perigee(rad): -0.387114406 Mean Anom(rad): -0.1274827957E+001 Af0(s): 0.1010894775E-003 Af1(s/s): -0.3637978807E-011 week: 477 ******** Week 477 almanac for PRN-17 ******** ID: 17 Health: 000 Eccentricity: 0.3878116608E-002 Time of Applicability(s): 503808.0000 Orbital Inclination(rad): 0.9597358704 Rate of Right Ascen(r/s): -0.7868948160E-008 SQRT(A) (m 1/2): 5153.541016 Right Ascen at Week(rad): 0.2579362154E+001 Argument of Perigee(rad): -2.794148207 Mean Anom(rad): -0.2406960368E+001 Af0(s): 0.3910064697E-004 Af1(s/s): 0.0000000000E+000 week: 477 ******** Week 477 almanac for PRN-18 ******** ID: 18 Health: 000 Eccentricity: 0.9909629822E-002 Time of Applicability(s): 503808.0000 Orbital Inclination(rad): 0.9453601837 Rate of Right Ascen(r/s): -0.8301867638E-008 SQRT(A) (m 1/2): 5153.673828 Right Ascen at Week(rad): -0.1589985728E+001 Argument of Perigee(rad): -2.451400518 Mean Anom(rad): -0.1122612953E+001 Af0(s): -0.1220703125E-003 Af1(s/s): 0.3637978807E-011 week: 477 ******** Week 477 almanac for PRN-19 ******** ID: 19 Health: 000 Eccentricity: 0.4913806915E-002 Time of Applicability(s): 503808.0000 Orbital Inclination(rad): 0.9575481415 Rate of Right Ascen(r/s): -0.7843482308E-008 SQRT(A) (m 1/2): 5153.682617 Right Ascen at Week(rad): 0.2636038184E+001 Argument of Perigee(rad): -0.453765035 Mean Anom(rad): -0.3015004039E+001 Af0(s): 0.3528594971E-004 Af1(s/s): 0.0000000000E+000 week: 477 ******** Week 477 almanac for PRN-20 ******** ID: 20 Health: 000 Eccentricity: 0.3544330597E-002 Time of Applicability(s): 503808.0000 Orbital Inclination(rad): 0.9449291229 Rate of Right Ascen(r/s): -0.8283677744E-008 SQRT(A) (m 1/2): 5153.701172 Right Ascen at Week(rad): -0.1643712044E+001 Argument of Perigee(rad): 1.349144340 Mean Anom(rad): -0.1040767431E+001 Af0(s): 0.1020431519E-003 Af1(s/s): 0.0000000000E+000 week: 477 ******** Week 477 almanac for PRN-21 ******** ID: 21 Health: 000 Eccentricity: 0.1434087753E-001 Time of Applicability(s): 503808.0000 Orbital Inclination(rad): 0.9357128143 Rate of Right Ascen(r/s): -0.7868948160E-008 SQRT(A) (m 1/2): 5153.628906 Right Ascen at Week(rad): -0.2648642898E+001 Argument of Perigee(rad): -2.672501683 Mean Anom(rad): 0.9418773651E-001 Af0(s): 0.4673004150E-004 Af1(s/s): 0.0000000000E+000 week: 477 ******** Week 477 almanac for PRN-22 ******** ID: 22 Health: 000 Eccentricity: 0.5158424377E-002 Time of Applicability(s): 503808.0000 Orbital Inclination(rad): 0.9430046082 Rate of Right Ascen(r/s): -0.8338247426E-008 SQRT(A) (m 1/2): 5153.613281 Right Ascen at Week(rad): -0.1583805203E+001 Argument of Perigee(rad): -1.821996570 Mean Anom(rad): -0.2322420716E+001 Af0(s): 0.2107620239E-003 Af1(s/s): 0.0000000000E+000 week: 477 ******** Week 477 almanac for PRN-23 ******** ID: 23 Health: 000 Eccentricity: 0.5855560303E-002 Time of Applicability(s): 503808.0000 Orbital Inclination(rad): 0.9712219238 Rate of Right Ascen(r/s): -0.8087226888E-008 SQRT(A) (m 1/2): 5153.636719 Right Ascen at Week(rad): -0.5718939304E+000 Argument of Perigee(rad): 2.860279799 Mean Anom(rad): 0.2618620872E+001 Af0(s): 0.3767013550E-003 Af1(s/s): 0.0000000000E+000 week: 477 ******** Week 477 almanac for PRN-24 ******** ID: 24 Health: 000 Eccentricity: 0.7410526276E-002 Time of Applicability(s): 503808.0000 Orbital Inclination(rad): 0.9523525238 Rate of Right Ascen(r/s): -0.7723429007E-008 SQRT(A) (m 1/2): 5153.615723 Right Ascen at Week(rad): -0.2620271802E+001 Argument of Perigee(rad): -0.690858722 Mean Anom(rad): -0.1250799537E+001 Af0(s): 0.1335144043E-003 Af1(s/s): 0.3637978807E-011 week: 477 ******** Week 477 almanac for PRN-25 ******** ID: 25 Health: 000 Eccentricity: 0.1159763336E-001 Time of Applicability(s): 503808.0000 Orbital Inclination(rad): 0.9670333862 Rate of Right Ascen(r/s): -0.7668859325E-008 SQRT(A) (m 1/2): 5153.652344 Right Ascen at Week(rad): 0.3756226301E+000 Argument of Perigee(rad): -1.250062466 Mean Anom(rad): -0.7367242575E+000 Af0(s): -0.5435943604E-004 Af1(s/s): 0.3637978807E-010 week: 477 ******** Week 477 almanac for PRN-26 ******** ID: 26 Health: 000 Eccentricity: 0.1920461655E-001 Time of Applicability(s): 503808.0000 Orbital Inclination(rad): 0.9934291840 Rate of Right Ascen(r/s): -0.7839844329E-008 SQRT(A) (m 1/2): 5153.591797 Right Ascen at Week(rad): -0.5268831253E+000 Argument of Perigee(rad): 0.956676364 Mean Anom(rad): 0.2150366902E+001 Af0(s): 0.3814697266E-005 Af1(s/s): 0.3637978807E-011 week: 477 ******** Week 477 almanac for PRN-27 ******** ID: 27 Health: 000 Eccentricity: 0.2124929428E-001 Time of Applicability(s): 503808.0000 Orbital Inclination(rad): 0.9716358185 Rate of Right Ascen(r/s): -0.7581547834E-008 SQRT(A) (m 1/2): 5153.679199 Right Ascen at Week(rad): 0.4109237194E+000 Argument of Perigee(rad): -1.681236982 Mean Anom(rad): -0.7832245827E+000 Af0(s): 0.2260208130E-003 Af1(s/s): 0.3637978807E-011 week: 477 ******** Week 477 almanac for PRN-28 ******** ID: 28 Health: 000 Eccentricity: 0.1406860352E-001 Time of Applicability(s): 503808.0000 Orbital Inclination(rad): 0.9643611908 Rate of Right Ascen(r/s): -0.7854396245E-008 SQRT(A) (m 1/2): 5153.577148 Right Ascen at Week(rad): 0.1546008825E+001 Argument of Perigee(rad): -2.088947415 Mean Anom(rad): -0.1976428628E+001 Af0(s): -0.2288818359E-004 Af1(s/s): 0.0000000000E+000 week: 477 ******** Week 477 almanac for PRN-29 ******** ID: 29 Health: 000 Eccentricity: 0.3365516663E-002 Time of Applicability(s): 503808.0000 Orbital Inclination(rad): 0.9598960876 Rate of Right Ascen(r/s): -0.7854396245E-008 SQRT(A) (m 1/2): 5153.519043 Right Ascen at Week(rad): 0.2587522984E+001 Argument of Perigee(rad): -1.370395780 Mean Anom(rad): 0.2518821955E+000 Af0(s): -0.3433227539E-004 Af1(s/s): 0.0000000000E+000 week: 477 ******** Week 477 almanac for PRN-30 ******** ID: 30 Health: 000 Eccentricity: 0.1116514206E-001 Time of Applicability(s): 503808.0000 Orbital Inclination(rad): 0.9495124817 Rate of Right Ascen(r/s): -0.7999915397E-008 SQRT(A) (m 1/2): 5153.618652 Right Ascen at Week(rad): 0.1476743340E+001 Argument of Perigee(rad): 1.408421636 Mean Anom(rad): -0.1553369761E+001 Af0(s): 0.1029968262E-003 Af1(s/s): 0.3637978807E-011 week: 477 ******** Week 477 almanac for PRN-31 ******** ID: 31 Health: 000 Eccentricity: 0.6765365601E-002 Time of Applicability(s): 503808.0000 Orbital Inclination(rad): 0.9700298309 Rate of Right Ascen(r/s): -0.7647031453E-008 SQRT(A) (m 1/2): 5153.519043 Right Ascen at Week(rad): 0.4673297405E+000 Argument of Perigee(rad): -1.237626314 Mean Anom(rad): 0.9230047464E+000 Af0(s): -0.3337860107E-004 Af1(s/s): -0.3637978807E-011 week: 477 ******** Week 477 almanac for PRN-32 ******** ID: 32 Health: 000 Eccentricity: 0.1395893097E-001 Time of Applicability(s): 503808.0000 Orbital Inclination(rad): 0.9668483734 Rate of Right Ascen(r/s): -0.8087226888E-008 SQRT(A) (m 1/2): 5153.687988 Right Ascen at Week(rad): -0.1538766980E+001 Argument of Perigee(rad): -1.270563006 Mean Anom(rad): 0.1875499725E+001 Af0(s): 0.3166198730E-003 Af1(s/s): 0.0000000000E+000 week: 477